| time (UTC) | temp C | wind direction | speed KPH | gust KPH | rain 1hr cm | rain 24hr cm | rain mn cm | humidity % | barometer mb |
| 20260507223114 | 27 | 70 | 0.0 | 0.0 | 0.00 | 0.00 | 0.00 | 88 | 1006.0 |
| 20260507222614 | 27 | 70 | 0.0 | 0.0 | 0.00 | 0.00 | 0.00 | 88 | 1006.0 |
| 20260507222114 | 27 | 70 | 0.0 | 1.6 | 0.00 | 0.00 | 0.00 | 88 | 1006.0 |
| 20260507221614 | 27 | 83 | 1.6 | 1.6 | 0.00 | 0.00 | 0.00 | 88 | 1006.0 |
| 20260507221114 | 27 | 71 | 1.6 | 1.6 | 0.00 | 0.00 | 0.00 | 87 | 1006.0 |
| 20260507220614 | 27 | 72 | 1.6 | 1.6 | 0.00 | 0.00 | 0.00 | 87 | 1006.0 |
| 20260507220115 | 27 | 72 | 3.2 | 3.2 | 0.00 | 0.00 | 0.00 | 87 | 1006.0 |
| 20260507215614 | 27 | 66 | 0.0 | 0.0 | 0.00 | 0.00 | 0.00 | 87 | 1006.0 |
| 20260507215114 | 27 | 67 | 0.0 | 1.6 | 0.00 | 0.00 | 0.00 | 87 | 1006.0 |
| 20260507214614 | 27 | 66 | 1.6 | 1.6 | 0.00 | 0.00 | 0.00 | 87 | 1006.0 |
| 20260507214115 | 27 | 72 | 1.6 | 1.6 | 0.00 | 0.00 | 0.00 | 87 | 1006.0 |
| 20260507213615 | 27 | 73 | 0.0 | 0.0 | 0.00 | 0.00 | 0.00 | 87 | 1006.0 |
| 20260507213114 | 27 | 72 | 0.0 | 1.6 | 0.00 | 0.00 | 0.00 | 87 | 1006.0 |
| 20260507212614 | 27 | 71 | 0.0 | 0.0 | 0.00 | 0.00 | 0.00 | 87 | 1006.0 |
| 20260507212114 | 27 | 70 | 0.0 | 0.0 | 0.00 | 0.00 | 0.00 | 87 | 1006.0 |
| 20260507211615 | 27 | 71 | 0.0 | 1.6 | 0.00 | 0.00 | 0.00 | 87 | 1006.0 |
| 20260507211114 | 27 | 74 | 0.0 | 0.0 | 0.00 | 0.00 | 0.00 | 86 | 1006.0 |
| 20260507210616 | 27 | 71 | 1.6 | 1.6 | 0.00 | 0.00 | 0.00 | 86 | 1006.0 |
| 20260507210116 | 27 | 76 | 1.6 | 1.6 | 0.00 | 0.00 | 0.00 | 86 | 1006.0 |
| 20260507205614 | 27 | 74 | 1.6 | 1.6 | 0.00 | 0.00 | 0.00 | 86 | 1006.0 |
| 20260507205115 | 27 | 74 | 0.0 | 0.0 | 0.00 | 0.00 | 0.00 | 86 | 1006.0 |
| 20260507204615 | 27 | 70 | 0.0 | 1.6 | 0.00 | 0.00 | 0.00 | 86 | 1006.0 |
| 20260507204114 | 27 | 67 | 0.0 | 0.0 | 0.00 | 0.00 | 0.00 | 86 | 1006.0 |
| 20260507203614 | 27 | 69 | 0.0 | 1.6 | 0.00 | 0.00 | 0.00 | 86 | 1006.0 |
| 20260507203115 | 27 | 64 | 0.0 | 0.0 | 0.00 | 0.00 | 0.00 | 86 | 1006.0 |
| 20260507202615 | 27 | 94 | 1.6 | 3.2 | 0.00 | 0.00 | 0.00 | 86 | 1006.0 |
| 20260507202115 | 27 | 54 | 1.6 | 1.6 | 0.00 | 0.00 | 0.00 | 86 | 1006.0 |
| 20260507201614 | 27 | 49 | 0.0 | 1.6 | 0.00 | 0.00 | 0.00 | 86 | 1006.0 |
| 20260507201115 | 27 | 53 | 1.6 | 1.6 | 0.00 | 0.00 | 0.00 | 86 | 1006.0 |
| 20260507200623 | 27 | 49 | 1.6 | 1.6 | 0.00 | 0.00 | 0.00 | 86 | 1007.0 |
| 20260507200114 | 27 | 50 | 1.6 | 1.6 | 0.00 | 0.00 | 0.00 | 86 | 1007.0 |
| 20260507195614 | 27 | 51 | 1.6 | 1.6 | 0.00 | 0.00 | 0.00 | 86 | 1007.0 |
| 20260507195114 | 27 | 51 | 0.0 | 1.6 | 0.00 | 0.00 | 0.00 | 86 | 1007.0 |
| 20260507194614 | 27 | 49 | 1.6 | 1.6 | 0.00 | 0.00 | 0.00 | 86 | 1007.0 |
| 20260507194115 | 27 | 49 | 0.0 | 1.6 | 0.00 | 0.00 | 0.00 | 85 | 1007.0 |
| 20260507193616 | 27 | 50 | 0.0 | 0.0 | 0.00 | 0.00 | 0.00 | 85 | 1007.0 |
| 20260507193115 | 27 | 49 | 0.0 | 0.0 | 0.00 | 0.00 | 0.00 | 85 | 1007.0 |
| 20260507192614 | 27 | 48 | 0.0 | 0.0 | 0.00 | 0.00 | 0.00 | 86 | 1007.0 |
| 20260507192115 | 27 | 49 | 0.0 | 0.0 | 0.00 | 0.00 | 0.00 | 86 | 1007.0 |
| 20260507191614 | 27 | 50 | 1.6 | 1.6 | 0.00 | 0.00 | 0.00 | 86 | 1007.0 |
| 20260507191114 | 27 | 52 | 1.6 | 3.2 | 0.00 | 0.00 | 0.00 | 85 | 1007.0 |
| 20260507190614 | 27 | 48 | 0.0 | 1.6 | 0.00 | 0.00 | 0.00 | 85 | 1007.0 |
| 20260507190114 | 28 | 49 | 1.6 | 1.6 | 0.00 | 0.00 | 0.00 | 84 | 1007.0 |
| 20260507185614 | 28 | 48 | 1.6 | 1.6 | 0.00 | 0.00 | 0.00 | 84 | 1007.0 |
| 20260507185114 | 28 | 46 | 0.0 | 0.0 | 0.00 | 0.00 | 0.00 | 84 | 1007.0 |
| 20260507184615 | 28 | 46 | 0.0 | 0.0 | 0.00 | 0.00 | 0.00 | 84 | 1007.0 |
| 20260507184114 | 28 | 46 | 0.0 | 0.0 | 0.00 | 0.00 | 0.00 | 83 | 1007.0 |
| 20260507183615 | 28 | 46 | 0.0 | 0.0 | 0.00 | 0.00 | 0.00 | 83 | 1007.0 |
| 20260507183114 | 28 | 46 | 0.0 | 0.0 | 0.00 | 0.00 | 0.00 | 83 | 1008.0 |
| 20260507182617 | 28 | 46 | 0.0 | 0.0 | 0.00 | 0.00 | 0.00 | 83 | 1007.0 |
| 20260507182114 | 28 | 46 | 0.0 | 1.6 | 0.00 | 0.00 | 0.00 | 83 | 1008.0 |
| 20260507181615 | 28 | 46 | 0.0 | 0.0 | 0.00 | 0.00 | 0.00 | 82 | 1008.0 |
| 20260507181115 | 28 | 44 | 1.6 | 1.6 | 0.00 | 0.00 | 0.00 | 82 | 1008.0 |
| 20260507180615 | 28 | 43 | 1.6 | 1.6 | 0.00 | 0.00 | 0.00 | 82 | 1008.0 |
| 20260507180115 | 28 | 43 | 1.6 | 1.6 | 0.00 | 0.00 | 0.00 | 82 | 1008.0 |
| 20260507175614 | 28 | 41 | 0.0 | 1.6 | 0.00 | 0.00 | 0.00 | 82 | 1008.0 |
| 20260507175115 | 28 | 40 | 1.6 | 1.6 | 0.00 | 0.00 | 0.00 | 82 | 1008.0 |
| 20260507174614 | 28 | 46 | 0.0 | 0.0 | 0.00 | 0.00 | 0.00 | 83 | 1008.0 |
| 20260507174114 | 28 | 46 | 0.0 | 1.6 | 0.00 | 0.00 | 0.00 | 82 | 1008.0 |
| 20260507173614 | 28 | 44 | 0.0 | 0.0 | 0.00 | 0.00 | 0.00 | 82 | 1008.0 |
| 20260507173115 | 28 | 44 | 0.0 | 1.6 | 0.00 | 0.00 | 0.00 | 82 | 1008.0 |
| 20260507172614 | 28 | 42 | 1.6 | 1.6 | 0.00 | 0.00 | 0.00 | 82 | 1008.0 |
| 20260507172115 | 28 | 42 | 1.6 | 1.6 | 0.00 | 0.00 | 0.00 | 82 | 1008.0 |
| 20260507171615 | 28 | 43 | 1.6 | 1.6 | 0.00 | 0.00 | 0.00 | 82 | 1008.0 |
| 20260507171115 | 28 | 42 | 1.6 | 1.6 | 0.00 | 0.00 | 0.00 | 82 | 1008.0 |
| 20260507170614 | 28 | 48 | 1.6 | 1.6 | 0.00 | 0.00 | 0.00 | 81 | 1008.0 |
| 20260507170114 | 28 | 68 | 0.0 | 1.6 | 0.00 | 0.00 | 0.00 | 81 | 1008.0 |
| 20260507165614 | 28 | 65 | 3.2 | 3.2 | 0.00 | 0.00 | 0.00 | 81 | 1008.0 |
| 20260507165115 | 28 | 66 | 1.6 | 1.6 | 0.00 | 0.00 | 0.00 | 81 | 1008.0 |
| 20260507164614 | 28 | 79 | 1.6 | 1.6 | 0.00 | 0.00 | 0.00 | 81 | 1008.0 |
| 20260507164115 | 28 | 60 | 0.0 | 1.6 | 0.00 | 0.00 | 0.00 | 81 | 1008.0 |
| 20260507163614 | 28 | 73 | 1.6 | 1.6 | 0.00 | 0.00 | 0.00 | 81 | 1008.0 |
| 20260507163114 | 28 | 90 | 1.6 | 3.2 | 0.00 | 0.00 | 0.00 | 81 | 1008.0 |
| 20260507162615 | 28 | 75 | 0.0 | 1.6 | 0.00 | 0.00 | 0.00 | 81 | 1008.0 |
| 20260507162114 | 28 | 73 | 1.6 | 1.6 | 0.00 | 0.00 | 0.00 | 81 | 1008.0 |
| 20260507161615 | 28 | 76 | 1.6 | 1.6 | 0.00 | 0.00 | 0.00 | 80 | 1007.0 |
| 20260507161114 | 28 | 170 | 4.8 | 8.0 | 0.00 | 0.00 | 0.00 | 80 | 1007.0 |
| 20260507160615 | 28 | 70 | 1.6 | 3.2 | 0.00 | 0.00 | 0.00 | 80 | 1007.0 |
| 20260507160115 | 28 | 77 | 4.8 | 8.0 | 0.00 | 0.00 | 0.00 | 80 | 1007.0 |
| 20260507155620 | 28 | 66 | 1.6 | 1.6 | 0.00 | 0.00 | 0.00 | 80 | 1007.0 |
| 20260507155115 | 28 | 66 | 3.2 | 3.2 | 0.00 | 0.00 | 0.00 | 80 | 1007.0 |
| 20260507154614 | 28 | 40 | 4.8 | 4.8 | 0.00 | 0.00 | 0.00 | 80 | 1007.0 |
| 20260507154114 | 28 | 252 | 4.8 | 8.0 | 0.00 | 0.00 | 0.00 | 80 | 1007.0 |
| 20260507153614 | 28 | 147 | 4.8 | 4.8 | 0.00 | 0.00 | 0.00 | 80 | 1007.0 |
| 20260507153114 | 28 | 151 | 4.8 | 4.8 | 0.00 | 0.00 | 0.00 | 80 | 1007.0 |
| 20260507152615 | 28 | 29 | 4.8 | 4.8 | 0.00 | 0.00 | 0.00 | 80 | 1007.0 |
| 20260507152114 | 28 | 225 | 4.8 | 8.0 | 0.00 | 0.00 | 0.00 | 80 | 1007.0 |
| 20260507151616 | 28 | 197 | 4.8 | 4.8 | 0.00 | 0.00 | 0.00 | 79 | 1007.0 |
| 20260507151115 | 28 | 74 | 3.2 | 4.8 | 0.00 | 0.00 | 0.00 | 79 | 1007.0 |
| 20260507150615 | 29 | 69 | 3.2 | 3.2 | 0.00 | 0.00 | 0.00 | 79 | 1007.0 |
| 20260507150114 | 29 | 59 | 1.6 | 3.2 | 0.00 | 0.00 | 0.00 | 79 | 1006.0 |
| 20260507145614 | 29 | 212 | 9.7 | 11.3 | 0.00 | 0.00 | 0.00 | 79 | 1006.0 |
| 20260507145115 | 29 | 28 | 3.2 | 4.8 | 0.00 | 0.00 | 0.00 | 79 | 1006.0 |
| 20260507144614 | 29 | 13 | 6.4 | 9.7 | 0.00 | 0.00 | 0.00 | 79 | 1006.0 |
| 20260507144114 | 29 | 7 | 8.0 | 11.3 | 0.00 | 0.00 | 0.00 | 79 | 1006.0 |
| 20260507143615 | 29 | 292 | 6.4 | 8.0 | 0.00 | 0.00 | 0.00 | 79 | 1006.0 |
| 20260507143114 | 29 | 274 | 11.3 | 12.9 | 0.00 | 0.00 | 0.00 | 79 | 1006.0 |
| 20260507142614 | 29 | 178 | 8.0 | 9.7 | 0.00 | 0.00 | 0.00 | 79 | 1006.0 |
| 20260507142115 | 29 | 222 | 4.8 | 8.0 | 0.00 | 0.00 | 0.00 | 78 | 1005.0 |
| 20260507141615 | 29 | 28 | 8.0 | 9.7 | 0.00 | 0.00 | 0.00 | 78 | 1005.0 |
| 20260507141114 | 29 | 65 | 3.2 | 3.2 | 0.00 | 0.00 | 0.00 | 78 | 1005.0 |
| 20260507140614 | 29 | 264 | 6.4 | 9.7 | 0.00 | 0.00 | 0.00 | 78 | 1005.0 |
| 20260507140115 | 29 | 354 | 8.0 | 11.3 | 0.00 | 0.00 | 0.00 | 77 | 1005.0 |
| 20260507135614 | 30 | 26 | 1.6 | 3.2 | 0.00 | 0.00 | 0.00 | 76 | 1005.0 |
| 20260507135114 | 30 | 233 | 8.0 | 11.3 | 0.00 | 0.00 | 0.00 | 76 | 1005.0 |
| 20260507134614 | 30 | 352 | 4.8 | 9.7 | 0.00 | 0.00 | 0.00 | 76 | 1005.0 |
| 20260507134115 | 30 | 184 | 4.8 | 4.8 | 0.00 | 0.00 | 0.00 | 75 | 1005.0 |
| 20260507133615 | 30 | 63 | 3.2 | 4.8 | 0.00 | 0.00 | 0.00 | 74 | 1005.0 |
| 20260507133115 | 30 | 57 | 3.2 | 3.2 | 0.00 | 0.00 | 0.00 | 73 | 1004.0 |
| 20260507132615 | 30 | 58 | 3.2 | 4.8 | 0.00 | 0.00 | 0.00 | 73 | 1005.0 |
| 20260507132116 | 30 | 326 | 6.4 | 8.0 | 0.00 | 0.00 | 0.00 | 73 | 1004.0 |
| 20260507131614 | 30 | 27 | 1.6 | 3.2 | 0.00 | 0.00 | 0.00 | 73 | 1004.0 |
| 20260507131114 | 30 | 3 | 6.4 | 9.7 | 0.00 | 0.00 | 0.00 | 73 | 1004.0 |
| 20260507130615 | 30 | 51 | 3.2 | 3.2 | 0.00 | 0.00 | 0.00 | 73 | 1004.0 |
| 20260507130115 | 30 | 352 | 1.6 | 3.2 | 0.00 | 0.00 | 0.00 | 73 | 1004.0 |
| 20260507125619 | 30 | 37 | 4.8 | 4.8 | 0.00 | 0.00 | 0.00 | 73 | 1004.0 |
| 20260507125114 | 30 | 57 | 4.8 | 8.0 | 0.00 | 0.00 | 0.00 | 73 | 1004.0 |
| 20260507124614 | 30 | 317 | 4.8 | 8.0 | 0.00 | 0.00 | 0.00 | 72 | 1004.0 |
| 20260507124114 | 30 | 68 | 4.8 | 8.0 | 0.00 | 0.00 | 0.00 | 72 | 1004.0 |
| 20260507123615 | 31 | 52 | 1.6 | 1.6 | 0.00 | 0.00 | 0.00 | 71 | 1004.0 |
| 20260507123115 | 31 | 47 | 6.4 | 11.3 | 0.00 | 0.00 | 0.00 | 71 | 1004.0 |
| 20260507122614 | 31 | 71 | 4.8 | 8.0 | 0.00 | 0.00 | 0.00 | 70 | 1003.0 |
| 20260507122115 | 31 | 345 | 4.8 | 4.8 | 0.00 | 0.00 | 0.00 | 69 | 1004.0 |
| 20260507121614 | 31 | 358 | 6.4 | 8.0 | 0.00 | 0.00 | 0.00 | 68 | 1003.0 |
| 20260507121115 | 31 | 222 | 8.0 | 11.3 | 0.00 | 0.00 | 0.00 | 67 | 1003.0 |
| 20260507120114 | 31 | 44 | 1.6 | 3.2 | 0.00 | 0.00 | 0.00 | 69 | 1004.0 |
| 20260507115615 | 32 | 303 | 8.0 | 12.9 | 0.00 | 0.00 | 0.00 | 67 | 1004.0 |
| 20260507115114 | 32 | 222 | 3.2 | 4.8 | 0.00 | 0.00 | 0.00 | 67 | 1004.0 |
| 20260507114616 | 32 | 336 | 4.8 | 8.0 | 0.00 | 0.00 | 0.00 | 66 | 1003.0 |
| 20260507114114 | 32 | 53 | 4.8 | 4.8 | 0.00 | 0.00 | 0.00 | 65 | 1003.0 |
| 20260507113615 | 32 | 233 | 11.3 | 12.9 | 0.00 | 0.00 | 0.00 | 65 | 1003.0 |
| 20260507113115 | 32 | 326 | 4.8 | 8.0 | 0.00 | 0.00 | 0.00 | 67 | 1003.0 |
| 20260507112614 | 32 | 24 | 6.4 | 8.0 | 0.00 | 0.00 | 0.00 | 66 | 1003.0 |
| 20260507112115 | 32 | 318 | 4.8 | 8.0 | 0.00 | 0.00 | 0.00 | 65 | 1003.0 |
| 20260507111615 | 33 | 324 | 11.3 | 14.5 | 0.00 | 0.00 | 0.00 | 66 | 1004.0 |
| 20260507111116 | 32 | 49 | 3.2 | 3.2 | 0.00 | 0.00 | 0.00 | 65 | 1003.0 |
| 20260507110614 | 32 | 344 | 4.8 | 4.8 | 0.00 | 0.00 | 0.00 | 66 | 1004.0 |
| 20260507110116 | 32 | 250 | 6.4 | 9.7 | 0.00 | 0.00 | 0.00 | 65 | 1004.0 |
| 20260507105614 | 33 | 67 | 3.2 | 4.8 | 0.00 | 0.00 | 0.00 | 66 | 1004.0 |
| 20260507105114 | 33 | 37 | 3.2 | 3.2 | 0.00 | 0.00 | 0.00 | 67 | 1004.0 |
| 20260507104614 | 33 | 332 | 8.0 | 11.3 | 0.00 | 0.00 | 0.00 | 65 | 1004.0 |
| 20260507104114 | 33 | 40 | 8.0 | 9.7 | 0.00 | 0.00 | 0.00 | 66 | 1004.0 |
| 20260507103614 | 33 | 359 | 6.4 | 8.0 | 0.00 | 0.00 | 0.00 | 66 | 1004.0 |
| 20260507103114 | 33 | 59 | 3.2 | 3.2 | 0.00 | 0.00 | 0.00 | 66 | 1004.0 |
| 20260507102614 | 33 | 341 | 6.4 | 9.7 | 0.00 | 0.00 | 0.00 | 66 | 1004.0 |
| 20260507102115 | 33 | 71 | 8.0 | 12.9 | 0.00 | 0.00 | 0.00 | 66 | 1004.0 |
| 20260507101614 | 33 | 64 | 1.6 | 3.2 | 0.00 | 0.00 | 0.00 | 66 | 1004.0 |
| 20260507101114 | 33 | 340 | 3.2 | 4.8 | 0.00 | 0.00 | 0.00 | 67 | 1004.0 |
| 20260507100615 | 33 | 2 | 6.4 | 9.7 | 0.00 | 0.00 | 0.00 | 66 | 1004.0 |
| 20260507100115 | 33 | 237 | 4.8 | 9.7 | 0.00 | 0.00 | 0.00 | 67 | 1004.0 |
| 20260507095615 | 33 | 39 | 8.0 | 12.9 | 0.00 | 0.00 | 0.00 | 66 | 1004.0 |
| 20260507095114 | 34 | 32 | 4.8 | 4.8 | 0.00 | 0.00 | 0.00 | 66 | 1004.0 |
| 20260507094614 | 33 | 352 | 4.8 | 9.7 | 0.00 | 0.00 | 0.00 | 66 | 1004.0 |
| 20260507094114 | 34 | 290 | 8.0 | 11.3 | 0.00 | 0.00 | 0.00 | 65 | 1004.0 |
| 20260507093614 | 33 | 55 | 4.8 | 4.8 | 0.00 | 0.00 | 0.00 | 66 | 1004.0 |
| 20260507093114 | 34 | 13 | 6.4 | 8.0 | 0.00 | 0.00 | 0.00 | 66 | 1004.0 |
| 20260507092614 | 35 | 14 | 6.4 | 8.0 | 0.00 | 0.00 | 0.00 | 60 | 1004.0 |
| 20260507092114 | 35 | 42 | 1.6 | 3.2 | 0.00 | 0.00 | 0.00 | 59 | 1004.0 |
| 20260507091614 | 35 | 13 | 4.8 | 4.8 | 0.00 | 0.00 | 0.00 | 58 | 1004.0 |
| 20260507091115 | 36 | 57 | 1.6 | 1.6 | 0.00 | 0.00 | 0.00 | 57 | 1004.0 |
| 20260507090614 | 37 | 11 | 4.8 | 4.8 | 0.00 | 0.00 | 0.00 | 55 | 1004.0 |
| 20260507090114 | 36 | 63 | 1.6 | 3.2 | 0.00 | 0.00 | 0.00 | 53 | 1004.0 |
| 20260507085614 | 35 | 62 | 1.6 | 1.6 | 0.00 | 0.00 | 0.00 | 55 | 1004.0 |
| 20260507085115 | 36 | 349 | 4.8 | 4.8 | 0.00 | 0.00 | 0.00 | 55 | 1004.0 |
| 20260507084614 | 36 | 352 | 4.8 | 8.0 | 0.00 | 0.00 | 0.00 | 56 | 1004.0 |
| 20260507084115 | 36 | 71 | 3.2 | 3.2 | 0.00 | 0.00 | 0.00 | 55 | 1004.0 |
| 20260507083615 | 36 | 60 | 1.6 | 1.6 | 0.00 | 0.00 | 0.00 | 53 | 1004.0 |
| 20260507083114 | 36 | 336 | 8.0 | 9.7 | 0.00 | 0.00 | 0.00 | 52 | 1004.0 |
| 20260507082615 | 36 | 63 | 0.0 | 1.6 | 0.00 | 0.00 | 0.00 | 54 | 1004.0 |
| 20260507082114 | 35 | 62 | 1.6 | 3.2 | 0.00 | 0.00 | 0.00 | 55 | 1005.0 |
| 20260507081614 | 34 | 286 | 4.8 | 4.8 | 0.00 | 0.00 | 0.00 | 59 | 1005.0 |
| 20260507081114 | 34 | 51 | 3.2 | 4.8 | 0.00 | 0.00 | 0.00 | 58 | 1005.0 |
| 20260507080614 | 36 | 17 | 4.8 | 4.8 | 0.00 | 0.00 | 0.00 | 56 | 1005.0 |
| 20260507080114 | 35 | 46 | 3.2 | 4.8 | 0.00 | 0.00 | 0.00 | 57 | 1005.0 |
| 20260507075615 | 36 | 69 | 0.0 | 1.6 | 0.00 | 0.00 | 0.00 | 52 | 1005.0 |
| 20260507075114 | 35 | 70 | 0.0 | 0.0 | 0.00 | 0.00 | 0.00 | 53 | 1005.0 |
| 20260507074614 | 36 | 15 | 6.4 | 8.0 | 0.00 | 0.00 | 0.00 | 55 | 1005.0 |
| 20260507074114 | 36 | 73 | 3.2 | 3.2 | 0.00 | 0.00 | 0.00 | 54 | 1005.0 |
| 20260507073615 | 36 | 62 | 1.6 | 1.6 | 0.00 | 0.00 | 0.00 | 56 | 1005.0 |
| 20260507073114 | 35 | 102 | 3.2 | 3.2 | 0.00 | 0.00 | 0.00 | 55 | 1005.0 |
| 20260507072614 | 35 | 32 | 3.2 | 4.8 | 0.00 | 0.00 | 0.00 | 56 | 1005.0 |
| 20260507072114 | 35 | 45 | 3.2 | 4.8 | 0.00 | 0.00 | 0.00 | 57 | 1006.0 |
| 20260507071614 | 35 | 38 | 3.2 | 4.8 | 0.00 | 0.00 | 0.00 | 59 | 1006.0 |
| 20260507071114 | 36 | 71 | 3.2 | 3.2 | 0.00 | 0.00 | 0.00 | 56 | 1006.0 |
| 20260507070616 | 36 | 74 | 1.6 | 1.6 | 0.00 | 0.00 | 0.00 | 53 | 1006.0 |
| 20260507070114 | 37 | 116 | 4.8 | 8.0 | 0.00 | 0.00 | 0.00 | 51 | 1006.0 |
| 20260507065614 | 37 | 74 | 1.6 | 3.2 | 0.00 | 0.00 | 0.00 | 44 | 1006.0 |
| 20260507065115 | 36 | 70 | 0.0 | 0.0 | 0.00 | 0.00 | 0.00 | 45 | 1006.0 |
| 20260507064614 | 35 | 92 | 0.0 | 1.6 | 0.00 | 0.00 | 0.00 | 46 | 1006.0 |
| 20260507064115 | 35 | 82 | 3.2 | 4.8 | 0.00 | 0.00 | 0.00 | 47 | 1006.0 |
| 20260507063614 | 36 | 69 | 0.0 | 0.0 | 0.00 | 0.00 | 0.00 | 47 | 1007.0 |
| 20260507063115 | 35 | 98 | 3.2 | 3.2 | 0.00 | 0.00 | 0.00 | 46 | 1007.0 |
| 20260507062614 | 35 | 70 | 3.2 | 3.2 | 0.00 | 0.00 | 0.00 | 49 | 1007.0 |
| 20260507062114 | 35 | 65 | 1.6 | 1.6 | 0.00 | 0.00 | 0.00 | 48 | 1007.0 |
| 20260507061614 | 35 | 66 | 1.6 | 1.6 | 0.00 | 0.00 | 0.00 | 50 | 1007.0 |
| 20260507061114 | 34 | 58 | 3.2 | 4.8 | 0.00 | 0.00 | 0.00 | 50 | 1007.0 |
| 20260507060614 | 35 | 62 | 1.6 | 3.2 | 0.00 | 0.00 | 0.00 | 49 | 1007.0 |
| 20260507060115 | 35 | 72 | 3.2 | 4.8 | 0.00 | 0.00 | 0.00 | 49 | 1007.0 |
| 20260507055614 | 34 | 69 | 1.6 | 1.6 | 0.00 | 0.00 | 0.00 | 51 | 1007.0 |
| 20260507055114 | 34 | 72 | 4.8 | 4.8 | 0.00 | 0.00 | 0.00 | 50 | 1007.0 |
| 20260507054615 | 36 | 36 | 3.2 | 3.2 | 0.00 | 0.00 | 0.00 | 48 | 1007.0 |
| 20260507054115 | 35 | 70 | 0.0 | 0.0 | 0.00 | 0.00 | 0.00 | 49 | 1007.0 |
| 20260507053615 | 35 | 65 | 0.0 | 0.0 | 0.00 | 0.00 | 0.00 | 52 | 1008.0 |
| 20260507053114 | 33 | 41 | 1.6 | 3.2 | 0.00 | 0.00 | 0.00 | 56 | 1007.0 |
| 20260507052615 | 33 | 61 | 1.6 | 1.6 | 0.00 | 0.00 | 0.00 | 54 | 1008.0 |
| 20260507052114 | 34 | 54 | 3.2 | 3.2 | 0.00 | 0.00 | 0.00 | 54 | 1008.0 |
| 20260507051614 | 33 | 43 | 4.8 | 4.8 | 0.00 | 0.00 | 0.00 | 55 | 1008.0 |
| 20260507051116 | 32 | 65 | 1.6 | 1.6 | 0.00 | 0.00 | 0.00 | 55 | 1008.0 |
| 20260507050615 | 33 | 74 | 1.6 | 1.6 | 0.00 | 0.00 | 0.00 | 56 | 1008.0 |
| 20260507050115 | 34 | 66 | 1.6 | 1.6 | 0.00 | 0.00 | 0.00 | 50 | 1008.0 |
| 20260507045614 | 32 | 56 | 1.6 | 1.6 | 0.00 | 0.00 | 0.00 | 56 | 1008.0 |
| 20260507045114 | 33 | 55 | 3.2 | 3.2 | 0.00 | 0.00 | 0.00 | 60 | 1008.0 |
| 20260507044615 | 33 | 52 | 3.2 | 3.2 | 0.00 | 0.00 | 0.00 | 57 | 1008.0 |
| 20260507044116 | 33 | 63 | 0.0 | 1.6 | 0.00 | 0.00 | 0.00 | 58 | 1008.0 |
| 20260507043615 | 32 | 70 | 3.2 | 3.2 | 0.00 | 0.00 | 0.00 | 58 | 1008.0 |
| 20260507043114 | 33 | 56 | 3.2 | 3.2 | 0.00 | 0.00 | 0.00 | 60 | 1008.0 |
| 20260507042614 | 32 | 75 | 1.6 | 1.6 | 0.00 | 0.00 | 0.00 | 60 | 1008.0 |
| 20260507042114 | 31 | 63 | 1.6 | 1.6 | 0.00 | 0.00 | 0.00 | 65 | 1008.0 |
| 20260507041615 | 31 | 48 | 4.8 | 4.8 | 0.00 | 0.00 | 0.00 | 67 | 1008.0 |
| 20260507041114 | 32 | 66 | 4.8 | 4.8 | 0.00 | 0.00 | 0.00 | 65 | 1008.0 |
| 20260507040616 | 33 | 72 | 1.6 | 1.6 | 0.00 | 0.00 | 0.00 | 63 | 1008.0 |
| 20260507040114 | 32 | 56 | 1.6 | 1.6 | 0.00 | 0.00 | 0.00 | 62 | 1008.0 |
| 20260507035614 | 32 | 49 | 1.6 | 3.2 | 0.00 | 0.00 | 0.00 | 62 | 1008.0 |
| 20260507035115 | 32 | 37 | 1.6 | 3.2 | 0.00 | 0.00 | 0.00 | 62 | 1008.0 |
| 20260507034615 | 32 | 59 | 1.6 | 1.6 | 0.00 | 0.00 | 0.00 | 66 | 1008.0 |
| 20260507034114 | 31 | 58 | 1.6 | 1.6 | 0.00 | 0.00 | 0.00 | 69 | 1008.0 |
| 20260507033614 | 30 | 60 | 1.6 | 1.6 | 0.00 | 0.00 | 0.00 | 71 | 1008.0 |
| 20260507033114 | 31 | 41 | 1.6 | 3.2 | 0.00 | 0.00 | 0.00 | 71 | 1008.0 |
| 20260507032614 | 31 | 26 | 6.4 | 8.0 | 0.00 | 0.00 | 0.00 | 70 | 1008.0 |
| 20260507032115 | 31 | 59 | 0.0 | 0.0 | 0.00 | 0.00 | 0.00 | 70 | 1008.0 |
| 20260507031615 | 31 | 54 | 0.0 | 0.0 | 0.00 | 0.00 | 0.00 | 68 | 1008.0 |
| 20260507031115 | 31 | 60 | 3.2 | 3.2 | 0.00 | 0.00 | 0.00 | 69 | 1008.0 |
| 20260507030614 | 30 | 65 | 0.0 | 0.0 | 0.00 | 0.00 | 0.00 | 72 | 1008.0 |
| 20260507030114 | 30 | 55 | 0.0 | 1.6 | 0.00 | 0.00 | 0.00 | 75 | 1008.0 |
| 20260507025614 | 30 | 69 | 0.0 | 0.0 | 0.00 | 0.00 | 0.00 | 76 | 1008.0 |
| 20260507025114 | 30 | 80 | 1.6 | 1.6 | 0.00 | 0.00 | 0.00 | 77 | 1008.0 |
| 20260507024615 | 30 | 73 | 0.0 | 1.6 | 0.00 | 0.00 | 0.00 | 76 | 1008.0 |
| 20260507024115 | 30 | 98 | 4.8 | 4.8 | 0.00 | 0.00 | 0.00 | 76 | 1008.0 |
| 20260507023615 | 29 | 64 | 3.2 | 3.2 | 0.00 | 0.00 | 0.00 | 78 | 1008.0 |
| 20260507023115 | 29 | 56 | 1.6 | 1.6 | 0.00 | 0.00 | 0.00 | 78 | 1008.0 |
| 20260507022615 | 29 | 94 | 3.2 | 3.2 | 0.00 | 0.00 | 0.00 | 80 | 1008.0 |
| 20260507022115 | 29 | 79 | 3.2 | 3.2 | 0.00 | 0.00 | 0.00 | 80 | 1008.0 |
| 20260507021614 | 29 | 68 | 3.2 | 3.2 | 0.00 | 0.00 | 0.00 | 80 | 1008.0 |
| 20260507021115 | 29 | 74 | 3.2 | 4.8 | 0.00 | 0.00 | 0.00 | 80 | 1008.0 |
| 20260507020614 | 28 | 79 | 1.6 | 3.2 | 0.00 | 0.00 | 0.00 | 81 | 1008.0 |
| 20260507020114 | 28 | 65 | 0.0 | 1.6 | 0.00 | 0.00 | 0.00 | 81 | 1008.0 |
| 20260507015614 | 28 | 68 | 1.6 | 1.6 | 0.00 | 0.00 | 0.00 | 82 | 1008.0 |
| 20260507015115 | 28 | 65 | 3.2 | 3.2 | 0.00 | 0.00 | 0.00 | 83 | 1008.0 |
| 20260507014615 | 28 | 59 | 1.6 | 1.6 | 0.00 | 0.00 | 0.00 | 84 | 1008.0 |
| 20260507014114 | 27 | 67 | 0.0 | 1.6 | 0.00 | 0.00 | 0.00 | 84 | 1008.0 |
| 20260507013614 | 27 | 68 | 3.2 | 3.2 | 0.00 | 0.00 | 0.00 | 86 | 1008.0 |
| 20260507013115 | 27 | 67 | 1.6 | 1.6 | 0.00 | 0.00 | 0.00 | 87 | 1008.0 |
| 20260507012617 | 27 | 66 | 1.6 | 1.6 | 0.00 | 0.00 | 0.00 | 89 | 1008.0 |
| 20260507012114 | 26 | 65 | 3.2 | 3.2 | 0.00 | 0.00 | 0.00 | 89 | 1007.0 |
| 20260507011616 | 26 | 64 | 1.6 | 3.2 | 0.00 | 0.00 | 0.00 | 90 | 1008.0 |
| 20260507011115 | 26 | 74 | 0.0 | 1.6 | 0.00 | 0.00 | 0.00 | 90 | 1008.0 |
| 20260507010616 | 26 | 75 | 1.6 | 1.6 | 0.00 | 0.00 | 0.00 | 91 | 1007.0 |
| 20260507010116 | 26 | 75 | 1.6 | 1.6 | 0.00 | 0.00 | 0.00 | 91 | 1007.0 |
| 20260507005617 | 26 | 76 | 0.0 | 0.0 | 0.00 | 0.00 | 0.00 | 91 | 1007.0 |
| 20260507005116 | 26 | 76 | 0.0 | 0.0 | 0.00 | 0.00 | 0.00 | 91 | 1007.0 |
| 20260507004615 | 26 | 76 | 0.0 | 0.0 | 0.00 | 0.00 | 0.00 | 91 | 1007.0 |
| 20260507004115 | 26 | 76 | 0.0 | 1.6 | 0.00 | 0.00 | 0.00 | 91 | 1007.0 |
| 20260507003615 | 26 | 77 | 1.6 | 1.6 | 0.00 | 0.00 | 0.00 | 91 | 1007.0 |
| 20260507003114 | 26 | 77 | 0.0 | 1.6 | 0.00 | 0.00 | 0.00 | 91 | 1007.0 |
| 20260507002614 | 26 | 77 | 0.0 | 1.6 | 0.00 | 0.00 | 0.00 | 91 | 1007.0 |
| 20260507002115 | 26 | 77 | 1.6 | 1.6 | 0.00 | 0.00 | 0.00 | 91 | 1007.0 |
| 20260507001614 | 26 | 72 | 0.0 | 1.6 | 0.00 | 0.00 | 0.00 | 91 | 1007.0 |
| 20260507001115 | 26 | 72 | 0.0 | 0.0 | 0.00 | 0.00 | 0.00 | 91 | 1007.0 |
| 20260507000615 | 26 | 72 | 0.0 | 0.0 | 0.00 | 0.00 | 0.00 | 91 | 1006.0 |
| 20260507000122 | 26 | 72 | 0.0 | 0.0 | 0.00 | 0.00 | 0.00 | 91 | 1006.0 |
| 20260506235615 | 26 | 67 | 0.0 | 0.0 | 0.00 | 0.00 | 0.00 | 91 | 1006.0 |
| 20260506235115 | 25 | 65 | 0.0 | 0.0 | 0.00 | 0.00 | 0.00 | 91 | 1006.0 |
| 20260506234614 | 26 | 65 | 0.0 | 0.0 | 0.00 | 0.00 | 0.00 | 91 | 1006.0 |
| 20260506234114 | 26 | 65 | 0.0 | 0.0 | 0.00 | 0.00 | 0.00 | 91 | 1006.0 |
| 20260506233615 | 26 | 66 | 0.0 | 1.6 | 0.00 | 0.00 | 0.00 | 91 | 1006.0 |
| 20260506233114 | 26 | 67 | 0.0 | 0.0 | 0.00 | 0.00 | 0.00 | 91 | 1006.0 |
| 20260506232618 | 26 | 67 | 0.0 | 0.0 | 0.00 | 0.00 | 0.00 | 91 | 1006.0 |
| 20260506232115 | 26 | 67 | 0.0 | 0.0 | 0.00 | 0.00 | 0.00 | 91 | 1006.0 |
| 20260506231614 | 26 | 63 | 0.0 | 0.0 | 0.00 | 0.00 | 0.00 | 91 | 1006.0 |
| 20260506231114 | 26 | 63 | 0.0 | 0.0 | 0.00 | 0.00 | 0.00 | 91 | 1006.0 |
| 20260506230615 | 26 | 63 | 0.0 | 0.0 | 0.00 | 0.00 | 0.00 | 91 | 1006.0 |
| 20260506230114 | 26 | 62 | 0.0 | 0.0 | 0.00 | 0.00 | 0.00 | 91 | 1006.0 |
| 20260506225614 | 26 | 62 | 0.0 | 0.0 | 0.00 | 0.00 | 0.00 | 91 | 1006.0 |
| 20260506225115 | 26 | 62 | 0.0 | 0.0 | 0.00 | 0.00 | 0.00 | 91 | 1006.0 |
| 20260506224615 | 26 | 62 | 0.0 | 1.6 | 0.00 | 0.00 | 0.00 | 91 | 1006.0 |
| 20260506224114 | 26 | 63 | 0.0 | 0.0 | 0.00 | 0.00 | 0.00 | 91 | 1006.0 |
| 20260506223615 | 26 | 64 | 0.0 | 0.0 | 0.00 | 0.00 | 0.00 | 91 | 1006.0 |